K0WOI Weather Reports


time (UTC)temp
C
wind
direction
speed
KPH
gust
KPH
rain 1hr
cm
rain 24hr
cm
rain mn
cm
humidity
%
barometer
mb
20260507094548 5 319 0.0 0.0 0.00 0.00 0.00 68 1012.1
20260507094046 5 319 0.0 0.0 0.00 0.00 0.00 67 1012.2
20260507093543 5 319 0.0 1.6 0.00 0.00 0.00 66 1012.1
20260507093042 5 318 0.0 1.6 0.00 0.00 0.00 66 1012.2
20260507092538 5 318 1.6 1.6 0.00 0.00 0.00 65 1012.2
20260507092035 5 317 0.0 1.6 0.00 0.00 0.00 65 1012.1
20260507091531 6 317 0.0 1.6 0.00 0.00 0.00 64 1012.3
20260507091028 6 315 0.0 1.6 0.00 0.00 0.00 63 1012.4
20260507090523 6 313 0.0 0.0 0.00 0.00 0.00 62 1012.8
20260507090020 6 312 0.0 1.6 0.00 0.00 0.00 61 1012.6
20260507085518 6 311 1.6 1.6 0.00 0.00 0.00 61 1012.6
20260507085014 6 309 0.0 0.0 0.00 0.00 0.00 60 1013.0
20260507084511 6 308 1.6 1.6 0.00 0.00 0.00 59 1013.1
20260507084008 6 308 1.6 1.6 0.00 0.00 0.00 59 1013.2
20260507083504 6 308 0.0 0.0 0.00 0.00 0.00 59 1013.1
20260507083001 6 307 0.0 1.6 0.00 0.00 0.00 59 1013.4
20260507082457 6 309 0.0 0.0 0.00 0.00 0.00 60 1013.3
20260507081953 6 313 0.0 0.0 0.00 0.00 0.00 60 1013.5
20260507081450 6 318 0.0 1.6 0.00 0.00 0.00 60 1013.4
20260507080947 6 326 0.0 0.0 0.00 0.00 0.00 59 1013.4
20260507080443 6 326 0.0 1.6 0.00 0.00 0.00 59 1013.4
20260507075938 6 326 0.0 0.0 0.00 0.00 0.00 59 1013.3
20260507075435 6 326 0.0 0.0 0.00 0.00 0.00 60 1013.4
20260507074931 5 326 0.0 1.6 0.00 0.00 0.00 61 1013.3
20260507074428 5 326 1.6 1.6 0.00 0.00 0.00 63 1013.7
20260507073926 5 326 0.0 1.6 0.00 0.00 0.00 63 1013.6
20260507073422 5 326 0.0 0.0 0.00 0.00 0.00 64 1013.8
20260507072919 5 326 0.0 0.0 0.00 0.00 0.00 63 1013.7
20260507072417 5 325 0.0 0.0 0.00 0.00 0.00 64 1013.9
20260507071915 5 325 1.6 1.6 0.00 0.00 0.00 63 1013.8
20260507071411 5 325 0.0 0.0 0.00 0.00 0.00 64 1014.0
20260507070907 5 325 1.6 1.6 0.00 0.00 0.00 64 1014.2
20260507070405 5 325 1.6 1.6 0.00 0.00 0.00 64 1014.0
20260507065901 5 325 1.6 1.6 0.00 0.00 0.00 65 1014.0
20260507065358 5 325 1.6 1.6 0.00 0.00 0.00 65 1014.3
20260507064855 5 325 0.0 0.0 0.00 0.00 0.00 66 1014.2
20260507064353 5 324 0.0 1.6 0.00 0.00 0.00 67 1014.2
20260507063851 5 324 0.0 1.6 0.00 0.00 0.00 67 1014.2
20260507063348 5 324 0.0 0.0 0.00 0.00 0.00 66 1014.3
20260507062845 5 324 0.0 0.0 0.00 0.00 0.00 66 1014.1
20260507062341 5 324 0.0 0.0 0.00 0.00 0.00 65 1014.4
20260507061839 5 324 1.6 1.6 0.00 0.00 0.00 65 1014.4
20260507061337 5 324 0.0 0.0 0.00 0.00 0.00 65 1014.3
20260507060835 5 324 1.6 1.6 0.00 0.00 0.00 66 1014.4
20260507060332 5 323 0.0 1.6 0.00 0.00 0.00 66 1014.4
20260507055828 5 322 1.6 1.6 0.00 0.00 0.00 66 1014.4
20260507055323 5 321 0.0 1.6 0.00 0.00 0.00 68 1014.4
20260507054820 5 321 1.6 1.6 0.00 0.00 0.00 68 1014.7
20260507054316 5 321 0.0 1.6 0.00 0.00 0.00 68 1014.9
20260507053814 5 320 1.6 1.6 0.00 0.00 0.00 68 1014.7
20260507053312 5 319 1.6 1.6 0.00 0.00 0.00 68 1014.9
20260507052811 5 319 0.0 1.6 0.00 0.00 0.00 68 1015.0
20260507052307 5 319 0.0 0.0 0.00 0.00 0.00 67 1014.7
20260507051805 5 319 0.0 1.6 0.00 0.00 0.00 68 1014.5
20260507051302 5 319 0.0 1.6 0.00 0.00 0.00 69 1014.7
20260507050759 4 319 1.6 1.6 0.00 0.00 0.00 71 1014.8
20260507050255 4 319 1.6 1.6 0.00 0.00 0.00 73 1014.7
20260507045752 4 319 0.0 0.0 0.00 0.00 0.00 73 1014.8
20260507045249 3 319 0.0 1.6 0.00 0.00 0.00 75 1014.5
20260507044746 3 319 0.0 0.0 0.00 0.00 0.00 78 1014.8
20260507044242 3 319 0.0 0.0 0.00 0.00 0.00 79 1014.9
20260507043738 3 319 0.0 0.0 0.00 0.00 0.00 80 1014.9
20260507043235 4 319 0.0 0.0 0.00 0.00 0.00 76 1015.0
20260507042731 4 319 0.0 0.0 0.00 0.00 0.00 73 1015.1
20260507042226 4 319 0.0 0.0 0.00 0.00 0.00 77 1015.1
20260507041724 5 319 0.0 0.0 0.00 0.00 0.00 72 1015.2
20260507041221 4 319 0.0 0.0 0.00 0.00 0.00 73 1015.0
20260507040718 4 319 0.0 0.0 0.00 0.00 0.00 75 1015.1
20260507040214 4 319 0.0 0.0 0.00 0.00 0.00 76 1015.3
20260507035709 3 319 0.0 0.0 0.00 0.00 0.00 78 1015.3
20260507035159 3 319 0.0 0.0 0.00 0.00 0.00 78 1015.2
20260507034656 3 319 0.0 0.0 0.00 0.00 0.00 80 1015.2
20260507034154 3 319 0.0 0.0 0.00 0.00 0.00 78 1015.3
20260507033652 4 319 0.0 0.0 0.00 0.00 0.00 75 1015.4
20260507033149 4 319 0.0 0.0 0.00 0.00 0.00 76 1015.3
20260507032647 4 319 0.0 0.0 0.00 0.00 0.00 78 1015.5
20260507032142 4 319 0.0 0.0 0.00 0.00 0.00 75 1015.3
20260507031639 5 319 0.0 0.0 0.00 0.00 0.00 75 1015.4
20260507031136 5 319 0.0 0.0 0.00 0.00 0.00 72 1015.5
20260507030633 5 319 0.0 0.0 0.00 0.00 0.00 70 1015.3
20260507030131 5 319 0.0 0.0 0.00 0.00 0.00 67 1015.4
20260507025627 5 319 0.0 0.0 0.00 0.00 0.00 66 1015.6
20260507025124 5 319 0.0 0.0 0.00 0.00 0.00 66 1015.5
20260507024622 5 319 0.0 0.0 0.00 0.00 0.00 72 1015.5
20260507024119 5 319 0.0 0.0 0.00 0.00 0.00 74 1015.6
20260507023615 5 319 0.0 0.0 0.00 0.00 0.00 72 1015.5
20260507023112 5 319 0.0 0.0 0.00 0.00 0.00 69 1015.4
20260507022609 5 319 0.0 0.0 0.00 0.00 0.00 68 1015.3
20260507022104 6 319 0.0 0.0 0.00 0.00 0.00 67 1015.3
20260507021601 6 319 0.0 0.0 0.00 0.00 0.00 64 1015.3
20260507021057 6 319 0.0 0.0 0.00 0.00 0.00 67 1015.3
20260507020555 6 319 0.0 0.0 0.00 0.00 0.00 67 1015.1
20260507020045 6 319 0.0 0.0 0.00 0.00 0.00 62 1015.3
20260507015544 7 319 0.0 0.0 0.00 0.00 0.00 60 1015.0
20260507015041 7 319 0.0 0.0 0.00 0.00 0.00 59 1015.2
20260507014538 7 319 0.0 0.0 0.00 0.00 0.00 55 1015.2
20260507014033 8 319 0.0 0.0 0.00 0.00 0.00 51 1015.2
20260507013530 8 319 0.0 0.0 0.00 0.00 0.00 45 1015.1
20260507013027 8 319 0.0 0.0 0.00 0.00 0.00 43 1015.3
20260507012525 9 319 0.0 0.0 0.00 0.00 0.00 45 1015.2
20260507012021 10 319 0.0 0.0 0.00 0.00 0.00 43 1015.1
20260507011518 10 319 0.0 0.0 0.00 0.00 0.00 40 1015.3
20260507011014 10 319 0.0 0.0 0.00 0.00 0.00 40 1015.3
20260507010509 11 319 0.0 0.0 0.00 0.00 0.00 40 1015.3
20260507010006 11 319 0.0 0.0 0.00 0.00 0.00 36 1015.2
20260507005503 11 318 1.6 1.6 0.00 0.00 0.00 33 1015.1
20260507004959 12 317 1.6 1.6 0.00 0.00 0.00 34 1015.3
20260507004456 12 312 3.2 3.2 0.00 0.00 0.00 33 1015.3
20260507003954 12 319 1.6 1.6 0.00 0.00 0.00 33 1015.1
20260507003449 12 320 1.6 1.6 0.00 0.00 0.00 33 1015.2
20260507002944 12 324 1.6 1.6 0.00 0.00 0.00 34 1015.3
20260507002441 12 318 1.6 3.2 0.00 0.00 0.00 33 1015.2
20260507001938 12 316 3.2 3.2 0.00 0.00 0.00 33 1015.3
20260507001434 13 308 1.6 1.6 0.00 0.00 0.00 35 1015.5
20260507000932 13 304 3.2 4.8 0.00 0.00 0.00 30 1015.3
20260507000427 13 336 4.8 4.8 0.00 0.00 0.00 30 1015.6
20260506235923 12 317 6.4 8.0 0.00 0.00 0.00 31 1015.6
20260506235420 12 303 1.6 3.2 0.00 0.00 0.00 32 1015.6
20260506234915 12 336 4.8 9.7 0.00 0.00 0.00 33 1015.7
20260506234414 12 316 1.6 1.6 0.00 0.00 0.00 35 1015.5
20260506233911 12 324 3.2 4.8 0.00 0.00 0.00 31 1015.5
20260506233407 12 330 1.6 1.6 0.00 0.00 0.00 32 1015.7
20260506232904 12 327 3.2 3.2 0.00 0.00 0.00 31 1015.6
20260506232400 12 318 3.2 3.2 0.00 0.00 0.00 32 1015.6
20260506231856 12 312 1.6 3.2 0.00 0.00 0.00 32 1015.8
20260506231354 12 322 1.6 3.2 0.00 0.00 0.00 33 1015.7
20260506230851 12 304 4.8 4.8 0.00 0.00 0.00 31 1015.8
20260506230348 13 297 4.8 4.8 0.00 0.00 0.00 31 1016.0
20260506225844 13 333 9.7 11.3 0.00 0.00 0.00 29 1015.9
20260506225342 13 311 3.2 3.2 0.00 0.00 0.00 31 1015.8
20260506224839 12 326 3.2 4.8 0.00 0.00 0.00 31 1015.9
20260506224336 13 325 3.2 3.2 0.00 0.00 0.00 31 1015.9
20260506223832 13 323 3.2 8.0 0.00 0.00 0.00 31 1016.1
20260506223327 13 306 3.2 4.8 0.00 0.00 0.00 32 1016.0
20260506222825 13 306 1.6 3.2 0.00 0.00 0.00 31 1015.8
20260506222319 12 302 4.8 4.8 0.00 0.00 0.00 32 1015.7
20260506221813 12 353 4.8 9.7 0.00 0.00 0.00 34 1016.0
20260506221310 13 264 6.4 8.0 0.00 0.00 0.00 33 1015.8
20260506220808 13 296 4.8 4.8 0.00 0.00 0.00 30 1015.8
20260506220302 12 324 4.8 4.8 0.00 0.00 0.00 34 1015.9
20260506215759 12 313 4.8 4.8 0.00 0.00 0.00 31 1015.9
20260506215255 13 268 1.6 3.2 0.00 0.00 0.00 31 1015.8
20260506214751 13 215 9.7 12.9 0.00 0.00 0.00 30 1015.8
20260506214248 13 325 3.2 3.2 0.00 0.00 0.00 31 1016.0
20260506213746 13 234 1.6 3.2 0.00 0.00 0.00 33 1015.9
20260506213243 13 263 4.8 4.8 0.00 0.00 0.00 33 1015.9
20260506212741 13 256 4.8 4.8 0.00 0.00 0.00 32 1015.9
20260506212236 12 277 3.2 3.2 0.00 0.00 0.00 32 1016.1
20260506211731 12 324 4.8 8.0 0.00 0.00 0.00 33 1016.2
20260506211228 12 276 3.2 3.2 0.00 0.00 0.00 36 1016.2
20260506210725 12 325 9.7 14.5 0.00 0.00 0.00 33 1016.4
20260506210222 12 310 4.8 4.8 0.00 0.00 0.00 34 1016.3
20260506205719 13 322 8.0 16.1 0.00 0.00 0.00 32 1016.4
20260506205214 12 327 4.8 4.8 0.00 0.00 0.00 34 1016.6
20260506204712 12 279 8.0 11.3 0.00 0.00 0.00 33 1016.6
20260506204209 12 333 1.6 3.2 0.00 0.00 0.00 34 1016.4
20260506203707 12 302 3.2 3.2 0.00 0.00 0.00 32 1016.5
20260506203204 13 325 14.5 22.5 0.00 0.00 0.00 31 1016.7
20260506202702 12 273 4.8 8.0 0.00 0.00 0.00 36 1016.6
20260506202157 12 307 4.8 8.0 0.00 0.00 0.00 34 1016.7
20260506201655 13 305 3.2 4.8 0.00 0.00 0.00 35 1016.6
20260506201151 13 279 3.2 4.8 0.00 0.00 0.00 33 1016.7
20260506200648 13 297 3.2 4.8 0.00 0.00 0.00 33 1016.7
20260506200144 12 297 6.4 8.0 0.00 0.00 0.00 33 1016.9
20260506195641 12 250 11.3 16.1 0.00 0.00 0.00 33 1016.8
20260506195137 12 284 14.5 16.1 0.00 0.00 0.00 32 1017.0
20260506194635 12 315 9.7 12.9 0.00 0.00 0.00 33 1017.1
20260506194131 12 307 4.8 8.0 0.00 0.00 0.00 35 1016.9
20260506193629 11 318 3.2 3.2 0.00 0.00 0.00 34 1016.9
20260506193126 11 322 3.2 3.2 0.00 0.00 0.00 33 1017.0
20260506192623 12 275 6.4 8.0 0.00 0.00 0.00 34 1017.0
20260506192118 12 272 6.4 9.7 0.00 0.00 0.00 33 1017.4
20260506191616 12 230 9.7 14.5 0.00 0.00 0.00 35 1017.1
20260506191111 12 317 8.0 11.3 0.00 0.00 0.00 34 1017.1
20260506190609 12 280 4.8 8.0 0.00 0.00 0.00 36 1017.2
20260506190106 12 6 8.0 12.9 0.00 0.00 0.00 35 1017.0
20260506185603 12 269 4.8 8.0 0.00 0.00 0.00 35 1017.2
20260506185059 13 320 6.4 9.7 0.00 0.00 0.00 36 1017.4
20260506184556 12 297 6.4 9.7 0.00 0.00 0.00 37 1017.2
20260506184054 11 284 8.0 11.3 0.00 0.00 0.00 34 1017.2
20260506183550 12 265 4.8 4.8 0.00 0.00 0.00 37 1017.3
20260506183046 12 307 9.7 14.5 0.00 0.00 0.00 36 1017.1
20260506182544 12 212 12.9 14.5 0.00 0.00 0.00 35 1017.2
20260506182041 11 277 4.8 8.0 0.00 0.00 0.00 41 1017.2
20260506181539 11 216 9.7 12.9 0.00 0.00 0.00 36 1017.4
20260506181035 12 358 11.3 12.9 0.00 0.00 0.00 33 1017.5
20260506180532 12 332 4.8 4.8 0.00 0.00 0.00 37 1017.4
20260506180029 11 326 6.4 9.7 0.00 0.00 0.00 38 1017.8
20260506175525 11 354 12.9 14.5 0.00 0.00 0.00 36 1017.7
20260506175022 12 319 8.0 11.3 0.00 0.00 0.00 36 1017.7
20260506174521 11 273 4.8 4.8 0.00 0.00 0.00 37 1017.7
20260506174016 11 297 8.0 9.7 0.00 0.00 0.00 36 1017.7
20260506173514 11 294 4.8 8.0 0.00 0.00 0.00 38 1017.8
20260506173011 11 303 4.8 8.0 0.00 0.00 0.00 37 1018.0
20260506172508 11 309 14.5 16.1 0.00 0.00 0.00 36 1017.7
20260506172004 10 308 6.4 9.7 0.00 0.00 0.00 39 1017.9
20260506171502 10 292 3.2 4.8 0.00 0.00 0.00 39 1018.0
20260506170959 10 300 6.4 8.0 0.00 0.00 0.00 39 1017.9
20260506170455 10 319 3.2 4.8 0.00 0.00 0.00 41 1017.8
20260506165948 10 293 6.4 9.7 0.00 0.00 0.00 41 1018.1
20260506165447 10 301 3.2 3.2 0.00 0.00 0.00 40 1017.8
20260506164942 10 237 4.8 9.7 0.00 0.00 0.00 40 1018.0
20260506164439 10 256 6.4 9.7 0.00 0.00 0.00 41 1018.1
20260506163937 10 322 6.4 8.0 0.00 0.00 0.00 41 1018.0
20260506163432 10 307 1.6 1.6 0.00 0.00 0.00 40 1018.0
20260506162927 10 326 4.8 9.7 0.00 0.00 0.00 39 1018.0
20260506162425 10 306 4.8 4.8 0.00 0.00 0.00 41 1018.1
20260506161922 10 256 4.8 4.8 0.00 0.00 0.00 41 1017.8
20260506161420 10 291 8.0 11.3 0.00 0.00 0.00 40 1018.0
20260506160917 10 292 6.4 9.7 0.00 0.00 0.00 40 1017.9
20260506160414 10 340 4.8 9.7 0.00 0.00 0.00 39 1017.9
20260506155912 10 295 8.0 12.9 0.00 0.00 0.00 41 1017.9
20260506155409 10 228 8.0 12.9 0.00 0.00 0.00 42 1017.8
20260506153531 10 288 1.6 3.2 0.00 0.00 0.00 42 1018.1
20260506153028 10 310 0.0 1.6 0.00 0.00 0.00 44 1017.8
20260506152525 10 314 3.2 3.2 0.00 0.00 0.00 43 1018.0
20260506152024 10 298 4.8 8.0 0.00 0.00 0.00 43 1017.9
20260506151521 10 243 4.8 4.8 0.00 0.00 0.00 43 1017.8
20260506151018 9 222 8.0 9.7 0.00 0.00 0.00 44 1018.0
20260506150514 9 291 3.2 4.8 0.00 0.00 0.00 45 1017.8
20260506150011 8 235 1.6 3.2 0.00 0.00 0.00 48 1017.6
20260506145508 8 278 4.8 8.0 0.00 0.00 0.00 46 1017.9
20260506145005 9 275 1.6 3.2 0.00 0.00 0.00 46 1017.9
20260506144502 8 333 3.2 3.2 0.00 0.00 0.00 47 1017.8
20260506143959 8 323 3.2 3.2 0.00 0.00 0.00 51 1017.7
20260506143456 8 324 3.2 3.2 0.00 0.00 0.00 49 1017.7
20260506142955 8 326 4.8 4.8 0.00 0.00 0.00 48 1018.1
20260506142452 7 322 1.6 1.6 0.00 0.00 0.00 49 1017.8
20260506141950 7 317 0.0 1.6 0.00 0.00 0.00 50 1017.9
20260506141448 7 315 3.2 3.2 0.00 0.00 0.00 53 1017.9
20260506140947 7 324 1.6 3.2 0.00 0.00 0.00 52 1017.7
20260506140443 7 329 1.6 1.6 0.00 0.00 0.00 55 1017.5
20260506135939 6 312 3.2 4.8 0.00 0.00 0.00 56 1017.6
20260506135437 6 289 3.2 4.8 0.00 0.00 0.00 58 1017.7
20260506134933 6 324 1.6 1.6 0.00 0.00 0.00 55 1017.7
20260506134429 6 315 1.6 1.6 0.00 0.00 0.00 57 1017.6
20260506133926 6 323 1.6 1.6 0.00 0.00 0.00 59 1017.5
20260506133423 6 319 0.0 1.6 0.00 0.00 0.00 59 1017.5
20260506132920 6 316 3.2 3.2 0.00 0.00 0.00 60 1017.4
20260506132417 5 327 1.6 1.6 0.00 0.00 0.00 64 1017.5
20260506131914 5 323 1.6 1.6 0.00 0.00 0.00 65 1017.2
20260506131411 5 322 1.6 1.6 0.00 0.00 0.00 66 1017.3
20260506130908 4 323 0.0 1.6 0.00 0.00 0.00 69 1017.2
20260506130404 4 323 3.2 3.2 0.00 0.00 0.00 69 1017.3
20260506125902 4 324 0.0 1.6 0.00 0.00 0.00 71 1017.2
20260506125401 3 324 3.2 4.8 0.00 0.00 0.00 69 1017.3
20260506124858 3 322 1.6 3.2 0.00 0.00 0.00 71 1017.0
20260506124355 3 321 0.0 1.6 0.00 0.00 0.00 72 1017.1
20260506123853 2 320 3.2 3.2 0.00 0.00 0.00 72 1017.2
20260506123351 2 320 1.6 3.2 0.00 0.00 0.00 74 1017.0
20260506122848 2 320 1.6 1.6 0.00 0.00 0.00 75 1016.8
20260506122345 2 320 1.6 1.6 0.00 0.00 0.00 75 1016.8
20260506121843 2 320 1.6 1.6 0.00 0.00 0.00 76 1016.7
20260506121340 2 320 0.0 0.0 0.00 0.00 0.00 83 1016.7
20260506120837 2 320 0.0 0.0 0.00 0.00 0.00 85 1016.6
20260506120334 2 320 0.0 0.0 0.00 0.00 0.00 84 1016.6
20260506115831 2 320 0.0 0.0 0.00 0.00 0.00 83 1016.5
20260506115330 2 320 0.0 0.0 0.00 0.00 0.00 81 1016.3
20260506114828 2 320 0.0 0.0 0.00 0.00 0.00 80 1016.2
20260506114325 2 320 0.0 0.0 0.00 0.00 0.00 79 1016.2
20260506113824 2 320 0.0 0.0 0.00 0.00 0.00 79 1016.4
20260506113321 2 320 1.6 1.6 0.00 0.00 0.00 75 1016.1
20260506112817 2 319 0.0 0.0 0.00 0.00 0.00 77 1016.3
20260506112314 2 319 0.0 0.0 0.00 0.00 0.00 75 1015.9
20260506111812 2 319 0.0 1.6 0.00 0.00 0.00 76 1016.1
20260506111310 2 319 0.0 0.0 0.00 0.00 0.00 74 1016.1
20260506110807 2 319 1.6 1.6 0.00 0.00 0.00 73 1016.1
20260506110304 2 319 1.6 3.2 0.00 0.00 0.00 74 1016.0
20260506105800 3 319 0.0 0.0 0.00 0.00 0.00 75 1015.8
20260506105257 3 319 0.0 0.0 0.00 0.00 0.00 74 1015.6
20260506104755 3 319 0.0 0.0 0.00 0.00 0.00 73 1015.4
20260506104253 3 319 0.0 0.0 0.00 0.00 0.00 74 1015.8
20260506103750 3 319 0.0 0.0 0.00 0.00 0.00 74 1015.6
20260506103247 3 319 0.0 0.0 0.00 0.00 0.00 73 1015.6
20260506102745 3 319 0.0 0.0 0.00 0.00 0.00 73 1015.7
20260506102243 3 319 1.6 1.6 0.00 0.00 0.00 73 1015.4
20260506101739 3 319 0.0 1.6 0.00 0.00 0.00 73 1015.7
20260506101235 3 319 0.0 0.0 0.00 0.00 0.00 72 1015.5
20260506100734 3 319 0.0 0.0 0.00 0.00 0.00 72 1015.4
20260506100232 3 319 1.6 1.6 0.00 0.00 0.00 73 1015.5
20260506095730 3 319 0.0 0.0 0.00 0.00 0.00 74 1015.4
20260506095226 3 320 0.0 0.0 0.00 0.00 0.00 71 1015.3
20260506094723 3 319 0.0 1.6 0.00 0.00 0.00 71 1015.3